sat.trackr.live / text

‹ back to catalog

STARLINK-11076 [DTC]

NORAD 58709 · 2024-002E

PAYLOAD ACTIVE UNKNOWN

§ Identity

Operator
Country
US
Launch date
2024-01-03
Launch site
AFWTR
Launch vehicle
Mass (kg)
RCS (m²)

Purposes: comms

External: N2YO · Heavens-Above · Gunter

§ Orbital elements

Epoch: 2026-09-20T13:08:49.399008Z

Period
91.74 min
Inclination
53.1599°
Eccentricity
0.0001002
Mean motion
15.69729715 rev/d
Perigee alt
359.0 km
Apogee alt
360.3 km
Semi-major
6,737.8 km
B*
4.3978e-5
RAAN
33.3242°
Arg perigee
110.7210°
Mean anomaly
249.3915°
Rev number
15,704

§ Raw data

STARLINK-11076 [DTC]1 58709U 24002E   26263.54779397  .00004747  00000+0  43978-4 0  99932 58709  53.1599  33.3242 0001002 110.7210 249.3915 15.69729715157047

JSON: /api/v1/satellites/58709 · /tle

For live sub-satellite position, see the globe view (requires WebGL).

§ Visibility from observer

Set your observer location to see the next 7 days of passes ≥ 10°. The values pass through the URL so the page stays shareable.

No JS? Fill the form by hand. The geolocation button needs JavaScript.